Regional Weather Roundup
Issued by NWS

Home | Current Version | Previous Version | Text Only | Print | Product List | Glossary Off
Versions: 1 2 3 4 5 6 7 8 9 10 11 12 13 14 15 16 17 18 19 20 21 22 23 24 25 26 27 28 29 30 31 32 33 34 35 36 37 38 39 40 41 42 43 44 45 46 47 48 49 50

000
ASUS45 KBOI 011210
RWRID

IDAHO REGIONAL WEATHER ROUNDUP
NATIONAL WEATHER SERVICE BOISE ID
600 AM MDT TUE SEP 01 2015

NOTE: "FAIR" INDICATES FEW OR NO CLOUDS BELOW 12000 FEET
WITH NO SIGNIFICANT WEATHER AND/OR OBSTRUCTIONS TO VISIBILITY

IDZ012-014-011300-
SOUTHWEST IDAHO


CITY           SKY/WX    TMP DP  RH WIND       PRES   REMARKS
BOISE          CLEAR     59  37  44 SE3       29.90F
CALDWELL       CLEAR     52  37  58 CALM      29.91S
MOUNTAIN HOME  CLEAR     51  38  61 E5        29.91S
$$

IDZ016-017-011300-
SOUTHCENTRAL IDAHO


CITY           SKY/WX    TMP DP  RH WIND       PRES   REMARKS
BURLEY         PTCLDY    46  42  86 SW3       29.96S
JEROME         CLEAR     57  32  38 E8        29.97S
TWIN FALLS     CLEAR     59  30  33 S10       29.97R
$$

IDZ019>023-011300-
SOUTHEAST IDAHO


CITY           SKY/WX    TMP DP  RH WIND       PRES   REMARKS
IDAHO FALLS    CLEAR     49  36  61 CALM      30.02S
POCATELLO      CLEAR     47  37  68 SE5       30.00F
REXBURG        CLEAR     44  35  70 N5        30.03S
$$

IDZ006-010-011-018-031-032-011300-
CENTRAL IDAHO MOUNTAINS


CITY           SKY/WX    TMP DP  RH WIND       PRES   REMARKS
MCCALL         PTCLDY    41  35  79 CALM      30.01S
HAILEY         CLEAR     46  34  61 NW13      30.06S
STANLEY          N/A     32  26  78 CALM      30.13S
SALMON         PTCLDY    43  36  75 CALM      29.99R
CHALLIS        CLEAR     48  31  51 S5        30.03S
$$

IDZ002-004-006-007-026-011300-
NORTHERN IDAHO


CITY           SKY/WX    TMP DP  RH WIND       PRES   REMARKS
LEWISTON       CLOUDY    57  43  59 CALM      29.90S
LOWELL           N/A     52  49  89 NW3       29.96R
COEUR D`ALENE  PTCLDY    55  45  67 S7        29.90S
MULLAN PASS    CLOUDY    45  41  86 VRB5      29.99S
$$



USA.gov is the U.S. government's official web portal to all federal, state and local government web resources and services.